Simultaneous Nadir Overpasses (SNOs) Predictions

Prediction of SNOs over PacNW region [( 10.00, 139.50) to ( 22.70, 165.60)] between NOAA-19 and NPP Satellites:

Table of predicted SNOs over PacNW region for the next 30.0 days since TLE Epoch: 9/15/2012
Index Date (NOAA-19) Time (NOAA-19) NOAA-19 Lat,Lon Date (NPP) Time (NPP) NPP Lat,Lon Distance(km) Time Diff (sec)
1 09/27/2012 03:53:54 17.78, 142.04 09/27/2012 03:55:18 17.14, 139.23 306.01 84
2 09/27/2012 14:48:01 14.70, 163.70 09/27/2012 14:45:48 15.16, 161.67 223.35 133
3 10/09/2012 03:23:42 10.11, 150.88 10/09/2012 03:27:17 8.17, 147.66 413.48 215
4 10/09/2012 16:00:06 21.69, 146.91 10/09/2012 15:59:49 22.24, 144.36 269.55 17
5 10/10/2012 03:16:26 22.64, 150.57 10/10/2012 03:12:50 24.31, 148.58 275.49 216




NCC Satellite Simultaneous Nadir Overpasses (SNOs) Prediction Service
